Location: Arena
(42.5007°N, 9.4650°E)
Time: 10:41:40
(UTC+00:00)

APEX - Pass Details

Date: 09 April 2020
Orbit: 332 x 1112 km, 69.9° (Epoch: 05 June)

Event Time Altitude Azimuth Distance (km) Brightness Sun altitude
Rises 18:34:20 0° 335° (NNW) 3,784 8.3 -7.4°
Reaches altitude 10° 18:37:12 10° 339° (NNW) 2,737 7.4 -7.9°
Maximum altitude 18:43:31 61° 59° (ENE) 960 4.3 -9.0°
Drops below altitude 10° 18:48:35 10° 140° (SE) 2,209 5.9 -9.9°
Enters shadow 18:48:51 - 141° (SE) 2,308 6.0 -9.9°
